EW7157 Weather Reports


time (UTC)temp
C
wind
direction
speed
KPH
gust
KPH
rain 1hr
cm
rain 24hr
cm
rain mn
cm
humidity
%
barometer
mb
20260905101615 20 180 0.0 0.0 0.00 0.05 0.00 80 1032.9
20260905095714 21 180 0.0 0.0 0.00 0.05 0.00 81 1033.0
20260905094715 21 180 0.0 0.0 0.00 0.05 0.00 81 1032.8
20260905092813 21 180 0.0 0.0 0.00 0.05 0.00 80 1032.7
20260905091815 21 180 0.0 0.0 0.00 0.05 0.00 80 1032.9
20260905090815 21 180 0.0 0.0 0.00 0.05 0.00 79 1032.9
20260905085814 21 180 0.0 0.0 0.00 0.05 0.00 80 1032.8
20260905084815 21 180 0.0 0.0 0.00 0.05 0.00 81 1032.7
20260905084713 21 180 0.0 0.0 0.00 0.05 0.00 81 1032.8
20260905083813 21 180 0.0 0.0 0.00 0.05 0.00 81 1032.6
20260905082813 21 180 0.0 0.0 0.00 0.05 0.00 81 1032.6
20260905081814 21 180 0.0 0.0 0.00 0.05 0.00 82 1032.6
20260905080912 21 180 0.0 0.0 0.00 0.05 0.00 83 1032.6
20260905075914 21 180 0.0 0.0 0.00 0.05 0.00 82 1032.8
20260905073916 21 180 0.0 0.0 0.00 0.05 0.00 82 1032.8
20260905070014 21 180 0.0 0.0 0.00 0.05 0.00 83 1032.8
20260905065915 21 180 0.0 0.0 0.00 0.05 0.00 83 1032.8
20260905064915 21 180 0.0 0.0 0.00 0.05 0.00 83 1033.0
20260905063915 21 180 0.0 0.0 0.00 0.05 0.00 83 1033.1
20260905061914 21 180 0.0 0.0 0.00 0.05 0.00 83 1033.1
20260905060914 21 180 0.0 0.0 0.00 0.05 0.00 81 1033.0
20260905060812 21 180 0.0 0.0 0.00 0.05 0.00 81 1033.0
20260905055814 21 180 0.0 0.0 0.00 0.05 0.00 80 1033.1
20260905053912 21 180 0.0 0.0 0.00 0.05 0.00 80 1033.1
20260905052916 22 180 0.0 0.0 0.00 0.05 0.00 80 1033.4
20260905051013 22 180 0.0 0.0 0.00 0.05 0.00 81 1033.4
20260905050016 22 180 0.0 0.0 0.00 0.05 0.00 80 1033.5
20260905045913 22 180 0.0 0.0 0.00 0.05 0.00 81 1033.4
20260905045012 22 180 0.0 0.0 0.00 0.05 0.00 80 1033.4
20260905044013 22 180 0.0 0.0 0.00 0.05 0.00 82 1033.6
20260905043014 22 180 0.0 0.0 0.00 0.05 0.00 82 1033.4
20260905042014 23 180 0.0 0.0 0.00 0.05 0.00 82 1033.5
20260905041912 23 180 0.0 0.0 0.00 0.05 0.00 82 1033.6
20260905035922 23 180 0.0 0.0 0.00 0.05 0.05 82 1033.6
20260905033924 23 180 0.0 0.0 0.00 0.05 0.05 81 1033.6
20260905032924 23 180 0.0 0.0 0.00 0.05 0.05 82 1033.6
20260905032822 23 180 0.0 0.0 0.00 0.05 0.05 82 1033.4
20260905031823 23 180 0.0 0.0 0.00 0.05 0.05 82 1033.4
20260905030823 23 180 0.0 0.0 0.00 0.05 0.05 81 1033.4
20260905025922 23 180 0.0 0.0 0.00 0.05 0.05 81 1033.3
20260905023923 23 180 0.0 0.0 0.00 0.05 0.05 82 1033.4
20260905023022 23 180 0.0 0.0 0.00 0.05 0.05 81 1033.3
20260905021922 23 180 0.0 0.0 0.00 0.05 0.05 81 1033.3
20260905020922 23 180 0.0 0.0 0.00 0.05 0.05 80 1033.5
20260905015923 23 180 0.0 0.0 0.00 0.05 0.05 80 1033.4
20260905014923 23 180 0.0 0.0 0.00 0.05 0.05 80 1033.4
20260905013924 23 180 0.0 0.0 0.00 0.05 0.05 79 1033.3
20260905013022 23 180 0.0 0.0 0.00 0.05 0.05 80 1033.4
20260905012023 23 180 0.0 0.0 0.00 0.05 0.05 81 1033.6
20260905011023 23 180 0.0 0.0 0.00 0.05 0.05 80 1033.5
20260905005025 23 180 0.0 0.0 0.00 0.05 0.05 80 1033.5
20260905004025 23 180 0.0 0.0 0.00 0.05 0.05 79 1033.3
20260905003023 23 180 0.0 0.0 0.00 0.05 0.05 78 1033.5
20260905002023 23 180 0.0 0.0 0.00 0.05 0.05 77 1033.2
20260905001021 24 180 0.0 0.0 0.00 0.05 0.05 77 1033.1
20260905000021 24 180 0.0 0.0 0.00 0.05 0.05 76 1032.9
20260904235022 24 180 0.0 0.0 0.00 0.05 0.05 75 1032.9
20260904234023 25 180 0.0 0.0 0.00 0.05 0.05 75 1032.9
20260904233023 25 180 0.0 0.0 0.00 0.05 0.05 75 1032.9
20260904232022 25 180 0.0 0.0 0.00 0.05 0.05 74 1033.0
20260904231923 25 180 0.0 0.0 0.00 0.05 0.05 73 1032.8
20260904230922 25 180 0.0 0.0 0.00 0.05 0.05 73 1033.0
20260904225923 26 180 0.0 0.0 0.00 0.05 0.05 73 1032.9
20260904224922 26 180 0.0 0.0 0.00 0.05 0.05 72 1033.0
20260904223921 26 180 0.0 0.0 0.00 0.05 0.05 71 1033.0
20260904221923 26 180 0.0 0.0 0.00 0.08 0.05 72 1033.4
20260904220923 26 180 0.0 0.0 0.00 0.08 0.05 71 1033.3
20260904215922 26 180 0.0 0.0 0.00 0.08 0.05 71 1033.1
20260904214924 27 180 0.0 3.2 0.00 0.08 0.05 69 1033.3
20260904214022 27 180 0.0 0.0 0.00 0.08 0.05 69 1033.2
20260904213023 27 180 0.0 0.0 0.00 0.08 0.05 67 1033.3
20260904212121 27 180 0.0 0.0 0.00 0.08 0.05 65 1033.2
20260904211124 28 135 0.0 0.0 0.00 0.08 0.05 65 1033.2
20260904210124 28 156 0.0 0.0 0.00 0.08 0.05 64 1033.1
20260904205123 29 180 0.0 0.0 0.00 0.08 0.05 63 1033.0
20260904204121 29 180 0.0 0.0 0.00 0.08 0.05 61 1033.0
20260904203123 30 135 0.0 0.0 0.00 0.08 0.05 61 1033.1
20260904202222 30 135 0.0 0.0 0.00 0.08 0.05 61 1033.2
20260904201221 29 180 0.0 0.0 0.00 0.08 0.05 60 1033.3
20260904200222 29 90 0.0 0.0 0.00 0.08 0.05 60 1033.3
20260904194322 31 183 1.6 4.8 0.00 0.08 0.05 55 1033.7
20260904193321 31 180 0.0 0.0 0.00 0.08 0.05 55 1033.8
20260904192323 31 135 0.0 0.0 0.00 0.08 0.05 53 1034.0
20260904191324 31 180 0.0 0.0 0.00 0.08 0.05 53 1034.0
20260904190323 31 132 0.0 1.6 0.00 0.08 0.05 54 1034.2
20260904185322 31 157 0.0 3.2 0.00 0.08 0.05 55 1034.2
20260904184325 30 165 0.0 4.8 0.00 0.08 0.05 57 1034.3
20260904183422 30 135 0.0 0.0 0.00 0.08 0.05 61 1034.5
20260904182424 28 135 0.0 3.2 0.00 0.08 0.05 64 1034.6
20260904181522 27 157 0.0 0.0 0.00 0.08 0.05 68 1034.4
20260904181438 27 157 0.0 0.0 0.00 0.08 0.05 69 1034.4
20260904181322 27 157 0.0 0.0 0.00 0.08 0.05 69 1034.4
20260904175323 27 180 0.0 0.0 0.00 0.08 0.05 70 1034.6
20260904174322 27 225 0.0 0.0 0.00 0.08 0.05 68 1034.5
20260904173322 28 225 0.0 0.0 0.00 0.08 0.05 67 1034.7
20260904172323 28 225 0.0 0.0 0.00 0.08 0.05 65 1034.6
20260904172240 28 225 0.0 0.0 0.00 0.08 0.05 66 1034.7
20260904171125 28 225 0.0 0.0 0.00 0.08 0.05 66 1034.5
20260904170221 28 225 0.0 0.0 0.00 0.08 0.05 64 1034.8
20260904165223 28 180 0.0 0.0 0.00 0.08 0.05 63 1034.7
20260904165123 28 180 0.0 0.0 0.00 0.08 0.05 63 1034.8
20260904163122 30 180 0.0 0.0 0.00 0.08 0.05 60 1034.9
20260904163022 30 180 0.0 0.0 0.00 0.08 0.05 59 1034.7
20260904162022 30 135 0.0 0.0 0.00 0.08 0.05 57 1034.9
20260904161121 30 135 0.0 0.0 0.00 0.08 0.05 57 1034.8
20260904160122 30 194 0.0 3.2 0.00 0.08 0.05 58 1034.9
20260904155122 30 135 0.0 0.0 0.00 0.08 0.05 57 1034.9
20260904155024 30 135 0.0 0.0 0.00 0.08 0.05 57 1034.9
20260904153140 30 152 0.0 3.2 0.05 0.08 0.05 58 1035.0
20260904153022 30 156 0.0 0.0 0.05 0.08 0.05 57 1035.0
20260904152022 30 180 0.0 0.0 0.05 0.08 0.05 57 1035.0
20260904150921 30 180 0.0 1.6 0.05 0.08 0.05 59 1035.1
20260904144922 29 180 0.0 0.0 0.05 0.08 0.05 62 1035.0
20260904144824 29 180 0.0 0.0 0.05 0.08 0.05 63 1035.1
20260904143823 29 166 0.0 0.0 0.05 0.08 0.03 63 1034.9
20260904142823 28 177 0.0 0.0 0.00 0.03 0.00 64 1034.9
20260904141922 28 135 0.0 3.2 0.00 0.03 0.00 63 1034.8
20260904140824 28 157 0.0 3.2 0.00 0.03 0.00 68 1034.8
20260904135822 27 157 0.0 3.2 0.00 0.03 0.00 70 1034.7
20260904133821 26 156 1.6 6.4 0.00 0.03 0.00 75 1034.8
20260904132822 25 135 0.0 0.0 0.00 0.03 0.00 78 1034.8
20260904131822 24 122 0.0 6.4 0.00 0.03 0.00 80 1034.8
20260904130823 23 157 0.0 0.0 0.00 0.03 0.00 82 1034.9
20260904125824 23 135 0.0 0.0 0.00 0.03 0.00 82 1034.8
20260904124822 23 180 0.0 3.2 0.00 0.03 0.00 83 1034.8
20260904123823 23 135 0.0 1.6 0.00 0.03 0.00 85 1035.0
20260904123721 23 147 1.6 4.8 0.00 0.03 0.00 86 1035.1
20260904122723 22 135 0.0 3.2 0.00 0.03 0.00 88 1035.0
20260904121722 22 135 0.0 0.0 0.00 0.03 0.00 89 1034.8
20260904120822 22 180 0.0 1.6 0.00 0.03 0.00 90 1034.9
20260904113824 21 180 0.0 0.0 0.00 0.03 0.00 90 1034.8
20260904111822 21 180 0.0 0.0 0.00 0.03 0.00 91 1034.6
20260904110822 21 180 0.0 0.0 0.00 0.03 0.00 92 1034.5
20260904105826 21 180 0.0 0.0 0.00 0.03 0.00 92 1034.1
20260904104922 21 180 0.0 0.0 0.00 0.03 0.00 92 1034.2
20260904103923 21 180 0.0 0.0 0.00 0.03 0.00 91 1034.0
20260904102924 22 180 0.0 0.0 0.00 0.03 0.00 91 1034.0
20260904102824 22 180 0.0 0.0 0.00 0.03 0.00 92 1033.9